K1TTT Weather Reports


time (UTC)temp
C
wind
direction
speed
KPH
gust
KPH
rain 1hr
cm
rain 24hr
cm
rain mn
cm
humidity
%
barometer
mb
20260504141042 12 196 24.1 37.0 0.00 0.00 0.00 46 1007.7
20260504140613 12 181 11.3 30.6 0.00 0.00 0.00 47 1007.6
20260504130531 11 195 14.5 25.7 0.00 0.00 0.00 50 1007.6
20260504110634 6 216 9.7 22.5 0.00 0.00 0.00 64 1008.0
20260504100527 3 251 4.8 11.3 0.00 0.00 0.00 71 1007.4
20260504100119 3 247 3.2 8.0 0.00 0.00 0.00 71 1007.4
20260504081531 3 252 3.2 4.8 0.00 0.00 0.00 71 1007.4
20260504081121 3 245 1.6 4.8 0.00 0.00 0.00 70 1007.4
20260504080609 4 243 1.6 4.8 0.00 0.00 0.00 69 1007.3
20260504070142 5 257 6.4 11.3 0.00 0.00 0.00 65 1007.1
20260504050556 4 235 4.8 11.3 0.00 0.00 0.00 67 1007.6
20260504050125 4 270 4.8 11.3 0.00 0.00 0.00 66 1007.6
20260504045607 3 280 3.2 8.0 0.00 0.00 0.00 66 1007.7
20260504045136 3 285 3.2 6.4 0.00 0.00 0.00 66 1007.7
20260504044531 3 289 3.2 6.4 0.00 0.00 0.00 66 1007.8
20260504044056 3 285 1.6 6.4 0.00 0.00 0.00 66 1007.8
20260504043604 3 291 3.2 6.4 0.00 0.00 0.00 65 1007.9
20260504043135 3 271 3.2 4.8 0.00 0.00 0.00 65 1007.9
20260504042552 3 273 3.2 4.8 0.00 0.00 0.00 65 1007.9
20260504042025 3 265 1.6 4.8 0.00 0.00 0.00 64 1007.8
20260504041613 3 259 1.6 3.2 0.00 0.00 0.00 64 1007.8
20260504041046 4 250 1.6 4.8 0.00 0.00 0.00 63 1007.8
20260504040542 4 251 1.6 4.8 0.00 0.00 0.00 63 1007.7
20260504040041 4 240 1.6 4.8 0.00 0.00 0.00 63 1007.7
20260504035534 4 249 1.6 4.8 0.00 0.00 0.00 63 1007.7
20260504035030 4 250 1.6 3.2 0.00 0.00 0.00 62 1007.8
20260504034553 4 235 1.6 6.4 0.00 0.00 0.00 62 1007.6
20260504034025 4 237 3.2 6.4 0.00 0.00 0.00 62 1007.5
20260504033548 4 226 3.2 4.8 0.00 0.00 0.00 61 1007.7
20260504033053 4 228 1.6 4.8 0.00 0.00 0.00 60 1007.6
20260504032526 5 237 0.0 4.8 0.00 0.00 0.00 60 1007.7
20260504032048 5 256 1.6 8.0 0.00 0.00 0.00 59 1007.6
20260504031551 5 263 3.2 8.0 0.00 0.00 0.00 59 1007.5
20260504031046 5 272 3.2 12.9 0.00 0.00 0.00 58 1007.3
20260504030542 5 229 3.2 12.9 0.00 0.00 0.00 58 1007.2
20260504030039 5 258 3.2 12.9 0.00 0.00 0.00 58 1007.3
20260504025604 5 271 4.8 16.1 0.00 0.00 0.00 58 1007.2
20260504025038 5 279 6.4 14.5 0.00 0.00 0.00 58 1007.3
20260504024607 5 270 4.8 12.9 0.00 0.00 0.00 57 1007.3
20260504024040 5 241 3.2 17.7 0.00 0.00 0.00 57 1007.3
20260504023536 5 239 8.0 17.7 0.00 0.00 0.00 56 1007.2
20260504023033 5 280 8.0 16.1 0.00 0.00 0.00 56 1007.3
20260504022623 6 302 6.4 16.1 0.00 0.00 0.00 56 1007.3
20260504022037 6 250 9.7 24.1 0.00 0.00 0.00 55 1007.4
20260504021531 6 289 11.3 24.1 0.00 0.00 0.00 55 1007.5
20260504021050 6 291 6.4 24.1 0.00 0.00 0.00 55 1007.4
20260504020619 6 301 12.9 24.1 0.00 0.00 0.00 54 1007.3
20260504020043 6 285 8.0 25.7 0.00 0.00 0.00 53 1007.3
20260504015535 6 239 16.1 25.7 0.00 0.00 0.00 53 1007.2
20260504015029 6 280 11.3 22.5 0.00 0.00 0.00 53 1007.0
20260504014600 6 298 9.7 25.7 0.00 0.00 0.00 52 1007.0
20260504014127 6 290 17.7 25.7 0.00 0.00 0.00 52 1006.9
20260504013535 6 297 14.5 24.1 0.00 0.00 0.00 52 1007.0
20260504013033 6 291 12.9 22.5 0.00 0.00 0.00 51 1007.0
20260504012600 6 285 11.3 40.2 0.00 0.00 0.00 51 1007.0
20260504012126 6 339 12.9 40.2 0.00 0.00 0.00 50 1007.0
20260504011654 6 283 16.1 25.7 0.00 0.00 0.00 50 1007.0
20260504011046 6 256 14.5 27.4 0.00 0.00 0.00 50 1006.9
20260504010542 6 301 14.5 27.4 0.00 0.00 0.00 49 1006.9
20260504010036 6 239 11.3 24.1 0.00 0.00 0.00 48 1006.7
20260504005531 6 246 12.9 29.0 0.00 0.00 0.00 47 1006.6
20260504005100 6 276 16.1 29.0 0.00 0.00 0.00 46 1006.8
20260504004536 6 267 8.0 30.6 0.00 0.00 0.00 46 1006.5
20260504004126 6 319 14.5 27.4 0.00 0.00 0.00 46 1006.4
20260504003539 6 280 11.3 33.8 0.00 0.00 0.00 45 1006.4
20260504003036 6 282 16.1 33.8 0.00 0.00 0.00 45 1006.3
20260504002532 6 294 9.7 19.3 0.00 0.00 0.00 44 1006.3
20260504002029 6 272 9.7 16.1 0.00 0.00 0.00 44 1006.2
20260504001526 6 283 8.0 19.3 0.00 0.00 0.00 43 1006.1
20260504001045 6 277 9.7 20.9 0.00 0.00 0.00 42 1006.0
20260504000540 6 235 9.7 24.1 0.00 0.00 0.00 41 1006.0
20260504000131 6 251 8.0 24.1 0.00 0.00 0.00 41 1005.9
20260503235533 6 309 9.7 24.1 0.00 0.00 0.00 40 1005.9
20260503235058 6 258 12.9 24.1 0.00 0.00 0.00 40 1005.8
20260503234533 6 278 9.7 24.1 0.00 0.00 0.00 39 1005.7
20260503234028 7 328 9.7 32.2 0.00 0.00 0.00 39 1005.7
20260503233524 7 287 9.7 32.2 0.00 0.00 0.00 38 1005.6
20260503233112 7 257 14.5 32.2 0.00 0.00 0.00 37 1005.6
20260503232546 7 295 20.9 32.2 0.00 0.00 0.00 36 1005.7
20260503232043 7 293 14.5 32.2 0.00 0.00 0.00 35 1005.5
20260503231538 7 218 14.5 25.7 0.00 0.00 0.00 35 1005.6
20260503231036 7 287 12.9 27.4 0.00 0.00 0.00 34 1005.6
20260503230628 7 241 17.7 30.6 0.00 0.00 0.00 34 1005.7
20260503230040 7 258 17.7 30.6 0.00 0.00 0.00 33 1005.5
20260503225528 8 284 12.9 30.6 0.00 0.00 0.00 35 1005.5
20260503225025 8 222 17.7 32.2 0.00 0.00 0.00 34 1005.5
20260503224546 8 277 12.9 32.2 0.00 0.00 0.00 35 1005.4
20260503224041 8 316 14.5 32.2 0.00 0.00 0.00 35 1005.4
20260503223631 8 312 17.7 32.2 0.00 0.00 0.00 36 1005.4
20260503223045 8 232 12.9 29.0 0.00 0.00 0.00 36 1005.3
20260503222539 8 241 14.5 25.7 0.00 0.00 0.00 38 1005.4
20260503222034 8 293 8.0 27.4 0.00 0.00 0.00 40 1005.3
20260503221531 8 276 9.7 29.0 0.00 0.00 0.00 41 1005.3
20260503221029 7 270 14.5 29.0 0.00 0.00 0.00 41 1005.4
20260503220526 8 210 16.1 33.8 0.00 0.00 0.00 40 1005.5
20260503220133 7 268 17.7 33.8 0.00 0.00 0.00 41 1005.5
20260503215546 8 316 19.3 33.8 0.00 0.00 0.00 40 1005.5
20260503215155 8 218 14.5 27.4 0.00 0.00 0.00 43 1005.7
20260503214548 7 298 6.4 37.0 0.00 0.00 0.00 43 1005.5
20260503214145 7 320 11.3 37.0 0.00 0.00 0.00 43 1005.5
20260503213536 7 293 12.9 29.0 0.00 0.00 0.00 44 1005.5
20260503213122 7 270 11.3 25.7 0.00 0.00 0.00 45 1005.5
20260503212609 7 354 9.7 38.6 0.00 0.00 0.00 44 1005.4
20260503212051 7 354 19.3 38.6 0.00 0.00 0.00 44 1005.4
20260503211554 7 263 11.3 24.1 0.00 0.00 0.00 46 1005.5
20260503211029 6 284 11.3 38.6 0.00 0.00 0.00 47 1005.5
20260503210559 6 285 22.5 38.6 0.00 0.00 0.00 46 1005.5
20260503210126 6 271 20.9 37.0 0.00 0.00 0.00 45 1005.5
20260503205537 7 330 17.7 35.4 0.00 0.00 0.00 45 1005.4
20260503205106 6 283 12.9 29.0 0.00 0.00 0.00 48 1005.4
20260503204540 6 294 12.9 32.2 0.00 0.00 0.00 48 1005.5
20260503204109 6 314 12.9 32.2 0.00 0.00 0.00 49 1005.5
20260503203543 6 301 14.5 25.7 0.00 0.00 0.00 49 1005.5
20260503203040 6 235 12.9 29.0 0.00 0.00 0.00 49 1005.4
20260503202531 6 313 16.1 30.6 0.00 0.00 0.00 49 1005.4
20260503202136 6 199 17.7 33.8 0.00 0.00 0.00 50 1005.4
20260503201557 6 266 14.5 41.8 0.00 0.00 0.00 50 1005.5
20260503201031 6 297 22.5 41.8 0.00 0.00 0.00 48 1005.4
20260503200620 6 311 16.1 33.8 0.00 0.00 0.00 49 1005.4
20260503200036 6 312 19.3 33.8 0.00 0.00 0.00 49 1005.5
20260503195531 6 319 9.7 35.4 0.00 0.00 0.00 50 1005.5
20260503195100 6 280 20.9 41.8 0.00 0.00 0.00 49 1005.6
20260503194626 6 280 22.5 41.8 0.00 0.00 0.00 49 1005.6
20260503194039 6 282 17.7 32.2 0.00 0.00 0.00 49 1005.4
20260503193545 6 335 12.9 35.4 0.00 0.00 0.00 50 1005.6
20260503193041 6 249 22.5 35.4 0.00 0.00 0.00 49 1005.6
20260503192610 5 254 19.3 33.8 0.00 0.00 0.00 51 1005.6
20260503192025 6 305 19.3 35.4 0.00 0.00 0.00 51 1005.6
20260503191615 6 340 14.5 35.4 0.00 0.00 0.00 50 1005.7
20260503191119 6 293 17.7 33.8 0.00 0.00 0.00 51 1005.5
20260503190608 6 293 14.5 33.8 0.00 0.00 0.00 51 1005.6
20260503190525 6 293 14.5 33.8 0.00 0.00 0.00 51 1005.6
20260503190052 6 14 19.3 33.8 0.00 0.00 0.00 49 1005.5
20260503185559 6 354 14.5 41.8 0.00 0.00 0.00 49 1005.4
20260503185033 6 314 17.7 41.8 0.00 0.00 0.00 49 1005.5
20260503184603 6 324 14.5 38.6 0.00 0.00 0.00 50 1005.6
20260503184128 6 251 17.7 37.0 0.00 0.00 0.00 49 1005.6
20260503184025 6 251 17.7 37.0 0.00 0.00 0.00 49 1005.6
20260503183550 5 301 16.1 35.4 0.00 0.00 0.00 51 1005.6
20260503183026 6 268 14.5 43.5 0.00 0.00 0.00 50 1005.6
20260503182549 5 253 17.7 43.5 0.00 0.00 0.00 48 1005.5
20260503182118 6 342 22.5 43.5 0.00 0.00 0.00 47 1005.6
20260503181532 6 252 14.5 30.6 0.00 0.00 0.00 49 1005.6
20260503181028 6 282 17.7 40.2 0.00 0.00 0.00 51 1005.5
20260503180611 6 251 19.3 40.2 0.00 0.00 0.00 51 1005.5
20260503180055 6 244 19.3 33.8 0.00 0.00 0.00 51 1005.5
20260503175547 6 256 17.7 33.8 0.00 0.00 0.00 52 1005.5
20260503175044 5 292 14.5 33.8 0.00 0.00 0.00 52 1005.5
20260503174541 5 297 11.3 33.8 0.00 0.00 0.00 54 1005.5
20260503174037 5 231 19.3 35.4 0.00 0.00 0.00 52 1005.6
20260503173628 5 326 8.0 29.0 0.00 0.00 0.00 53 1005.4
20260503173030 5 294 11.3 38.6 0.00 0.00 0.00 54 1005.5
20260503172549 5 245 14.5 38.6 0.00 0.00 0.00 53 1005.4
20260503172052 5 328 11.3 32.2 0.00 0.00 0.00 54 1005.4
20260503171526 5 264 16.1 32.2 0.00 0.00 0.00 55 1005.5
20260503171051 4 285 19.3 32.2 0.00 0.00 0.00 56 1005.7
20260503170524 4 325 19.3 32.2 0.00 0.00 0.00 57 1005.7
20260503170117 4 280 14.5 30.6 0.00 0.00 0.00 58 1005.7
20260503150529 5 230 9.7 29.0 0.00 0.00 0.00 59 1005.6
20260503150120 5 354 17.7 32.2 0.00 0.00 0.00 60 1005.7